Wind_Speed
17 17 15 13 11 9 8 8 9 8 8 10 10 10 10 11 13 12 12 11 19 11 9 11 13 16 15 15 16 17 11 14 19 20 15 9 4 9 3 10 5 8 18 21 25
18 19 17 14 11 10 9 9 9 9 9 9 11 10 10 10 12 21 20 10 8 8 15 15 14 14 12 13 14 13 12 18 22 18 18 4 6 10 3 8 13 9 31 37 27
19 19 17 15 13 11 10 9 9 8 8 8 9 9 8 7 9 7 22 17 10 14 17 14 13 12 14 15 16 15 16 21 20 13 13 15 7 7 10 12 14 15 22 20 22
22 21 18 16 14 12 11 9 8 8 7 7 7 8 6 4 3 8 16 12 12 14 14 17 13 14 13 15 17 17 19 18 22 13 11 12 12 14 10 15 7 21 17 18 14
24 22 19 16 14 12 11 10 9 8 7 6 7 7 3 8 8 13 15 13 14 12 17 13 14 13 15 16 15 15 18 17 16 12 16 12 16 17 12 19 11 21 24 21 10
26 23 19 16 14 11 10 8 7 7 8 7 8 8 5 12 11 15 15 15 13 16 18 17 11 12 16 14 16 14 12 16 20 13 16 16 18 15 15 21 13 3 6 11 13
28 24 18 16 14 10 6 5 3 4 6 7 9 7 11 14 2 12 16 15 15 16 14 13 15 10 11 16 12 15 17 15 17 15 17 15 20 19 18 14 19 7 5 11 11
31 25 19 15 12 8 4 2 1 3 5 7 8 6 7 3 6 12 15 15 15 15 16 9 9 12 15 15 19 12 15 17 17 21 18 16 20 18 17 12 20 11 10 10 10
34 27 21 16 11 3 1 2 2 4 5 8 6 9 10 5 11 14 17 16 15 12 14 9 10 12 14 15 13 14 14 19 20 20 19 19 20 18 15 16 16 11 10 10 9
34 29 23 14 7 2 2 1 3 5 4 5 14 8 9 10 10 14 15 16 11 9 11 10 8 13 14 13 14 16 17 15 17 16 11 14 17 16 18 19 18 15 10 11 9
34 32 21 10 7 2 0 1 5 6 12 11 7 11 4 3 4 8 16 14 15 9 14 15 12 14 17 18 20 17 20 18 20 16 12 14 15 19 15 19 11 7 9 12 6
36 29 21 10 7 7 8 6 7 8 10 17 18 17 14 6 10 11 14 13 16 15 16 14 18 16 18 19 20 19 17 17 18 22 19 17 14 18 18 11 9 12 7 6 11
36 29 22 15 14 13 5 8 8 9 6 10 9 10 6 12 14 12 15 16 16 17 18 18 18 19 23 14 17 18 16 17 21 22 20 18 20 17 23 10 9 3 7 7 5
37 33 20 22 10 10 3 11 9 5 5 12 9 6 7 7 9 15 16 13 17 20 18 17 19 21 20 16 15 18 20 18 21 19 15 18 15 18 20 15 13 12 9 9 12
37 33 18 18 15 7 12 13 10 5 5 13 11 6 1 10 3 12 14 16 17 19 18 20 20 20 19 20 18 21 16 19 20 19 17 24 14 14 17 21 19 16 16 16 14
38 29 15 6 12 13 15 12 6 5 5 6 6 5 13 12 10 6 5 14 13 19 20 21 22 22 22 19 17 17 20 18 18 17 17 20 18 18 18 20 22 20 18 16 14
40 23 12 9 7 15 14 9 6 6 3 5 2 1 7 8 6 9 11 12 12 13 15 20 22 22 22 22 20 17 18 12 16 15 16 19 20 19 17 17 26 20 16 16 16
42 17 6 8 10 13 11 7 8 10 1 6 2 7 11 12 10 13 8 14 14 18 15 14 16 13 7 15 13 20 14 5 9 16 16 18 19 3 15 16 25 25 18 13 13
41 14 10 6 9 11 7 7 10 9 6 6 9 12 15 15 8 12 13 12 14 11 4 9 16 11 8 9 11 10 13 14 6 19 16 19 18 1 6 2 12 14 19 13 13
29 11 2 3 10 10 6 12 20 2 5 8 10 10 13 14 10 11 11 9 9 6 3 8 17 11 5 7 11 10 8 8 3 3 6 13 10 7 20 9 18 12 5 11 11
9 6 6 10 11 7 9 15 6 9 4 6 10 14 15 13 13 16 14 14 2 2 5 6 9 18 17 14 15 10 6 3 3 5 4 7 4 13 21 16 15 18 4 5 4
11 6 16 12 7 7 11 3 4 8 9 7 8 12 14 16 17 16 14 14 7 2 6 2 4 11 14 15 16 2 4 1 4 2 3 2 2 4 11 14 14 13 15 17 10
8 8 5 7 5 9 14 9 11 11 12 9 11 10 11 15 15 13 12 3 3 2 4 7 5 9 14 17 7 6 6 10 3 3 8 4 5 3 9 6 8 7 15 12 7
5 5 6 7 4 7 12 13 14 14 15 9 15 17 16 16 14 12 15 5 5 2 9 5 9 12 12 17 6 7 13 9 13 8 9 11 14 7 7 10 10 15 17 22 15
4 5 6 6 10 16 14 14 19 19 19 13 12 13 16 17 16 17 18 17 9 11 5 5 11 13 15 17 16 15 12 13 17 17 15 15 18 12 13 10 6 11 12 16 7
6 5 9 13 16 16 12 14 18 17 17 15 15 14 17 18 16 18 18 16 15 16 13 11 10 12 16 17 15 16 18 19 19 19 22 19 18 13 9 14 14 13 8 5 6
15 15 7 8 14 14 13 15 13 16 13 12 14 16 17 12 13 16 14 12 10 9 13 11 11 11 14 17 17 13 17 14 17 19 14 16 15 1 2 1 6 7 7 8 9
Wind_Direction
8 3 354 346 336 325 307 291 283 280 271 257 253 253 262 273 284 277 254 242 207 227 190 197 218 232 239 247 242 246 260 262 265 265 279 162 152 262 288 310 44 76 126 178 223
5 2 354 345 333 322 309 291 282 277 277 264 253 256 265 283 284 266 243 204 203 205 190 214 209 219 231 239 238 231 250 251 259 277 334 78 63 304 176 256 265 145 142 172 169
6 358 351 342 331 319 311 294 277 268 269 267 251 252 266 296 279 233 201 208 217 196 205 215 228 218 234 237 231 229 244 266 274 338 321 336 353 306 281 277 234 209 155 149 157
3 355 347 340 332 320 313 294 274 261 260 258 242 240 255 265 328 131 165 181 182 185 224 244 238 233 240 239 234 238 252 259 274 303 302 286 287 280 284 269 6 21 130 141 162
359 353 345 337 331 320 314 298 274 253 244 238 220 219 248 230 254 143 157 171 178 195 229 230 228 231 236 245 238 244 252 265 270 267 280 281 273 275 288 269 279 115 139 200 159
358 352 344 335 329 322 318 308 283 241 222 209 199 205 245 257 109 155 162 171 189 201 227 227 230 227 271 289 270 254 246 255 269 259 263 254 263 262 261 266 275 220 168 149 158
0 354 346 338 331 325 317 322 300 219 207 194 191 197 262 253 193 164 186 185 203 210 230 229 265 303 265 267 263 272 270 271 265 262 257 256 255 249 256 246 257 178 253 270 158
5 359 351 343 336 329 325 353 118 173 184 181 188 219 260 163 221 189 189 200 215 223 247 257 266 277 280 282 286 266 266 264 259 242 233 246 259 247 235 225 258 213 199 244 169
8 2 354 346 342 355 45 86 115 149 169 178 192 219 257 159 220 211 200 211 214 230 240 270 292 260 262 253 261 255 255 256 257 247 230 212 248 257 261 225 242 200 233 219 213
9 4 357 357 19 50 113 39 146 141 170 219 266 243 247 242 179 211 210 222 215 226 234 229 251 245 245 251 249 258 246 246 245 274 188 233 248 243 268 259 201 230 203 241 212
7 4 1 18 18 40 332 250 206 205 219 246 279 239 139 172 137 219 202 212 224 219 231 229 243 244 251 245 249 263 276 292 293 299 258 233 235 264 241 265 178 179 216 246 87
6 1 3 357 333 318 285 274 25 329 289 255 247 252 272 234 223 218 194 210 224 227 220 241 238 249 266 272 278 275 284 283 276 282 285 275 248 249 249 224 209 223 209 214 106
3 358 353 334 308 294 271 7 326 324 268 245 220 229 212 223 238 244 181 215 226 228 246 245 251 248 238 251 268 277 265 274 278 287 274 256 263 253 267 174 170 122 166 179 165
360 353 344 337 302 322 335 341 327 341 273 180 192 180 187 226 222 230 190 220 230 250 240 251 257 252 268 242 246 272 283 250 264 267 270 272 249 245 244 183 187 175 152 162 125
355 350 336 329 303 347 335 330 333 272 271 163 134 108 234 231 78 189 237 204 242 247 246 262 270 258 252 256 281 275 269 284 280 279 249 259 270 254 252 190 185 183 179 172 163
349 347 329 338 279 305 325 321 281 237 238 141 139 204 195 208 243 161 214 238 260 249 259 273 280 278 283 288 263 263 260 262 278 265 263 248 251 263 254 211 176 179 174 156 150
344 343 306 287 308 328 323 282 245 243 121 164 169 224 292 284 218 240 255 211 235 247 248 255 255 254 259 260 270 264 276 257 251 243 247 249 251 249 344 300 165 168 149 169 154
341 341 293 248 304 327 310 264 254 299 21 100 317 269 262 273 262 269 249 270 244 231 251 280 288 319 308 281 271 289 298 332 296 288 277 260 260 306 17 10 152 151 148 171 162
340 333 257 203 326 328 291 247 245 344 20 358 319 279 264 251 208 290 263 263 286 18 252 287 277 9 12 351 343 309 269 308 325 283 296 287 286 110 159 70 123 169 159 150 108
333 304 358 343 326 307 271 259 291 61 358 307 281 303 290 297 224 205 263 288 263 160 254 288 295 284 283 241 263 254 352 318 286 0 247 252 305 3 5 273 139 135 154 128 126
302 298 72 335 306 265 252 269 331 72 31 310 288 285 290 283 288 292 296 286 167 256 194 280 287 284 292 274 303 301 278 340 287 286 303 333 42 353 1 344 8 2 81 75 115
317 304 356 346 292 238 251 15 352 312 302 247 283 281 282 292 293 286 276 278 66 11 278 45 316 291 283 307 308 287 293 81 268 233 163 138 291 33 37 358 19 17 337 336 14
309 292 179 324 317 337 346 327 319 293 286 277 272 266 281 283 286 276 279 257 106 267 24 352 244 276 273 258 36 353 291 224 195 64 255 279 246 222 351 48 4 344 300 302 348
289 314 358 329 189 338 339 313 298 301 289 269 291 287 283 277 264 269 272 242 176 96 69 30 278 264 268 285 163 221 221 240 193 209 254 227 266 235 262 277 225 211 225 228 198
271 337 357 300 318 331 304 292 289 288 285 266 258 275 269 270 263 265 264 247 182 143 181 191 250 262 267 271 270 278 281 261 227 231 242 270 282 252 235 222 244 214 228 279 320
331 344 338 300 286 286 282 279 281 286 294 288 291 285 279 277 269 266 276 275 258 180 199 205 244 270 274 272 278 271 267 261 257 272 276 270 262 261 234 205 204 235 270 287 326
352 332 304 288 293 285 279 279 302 308 306 296 293 277 277 299 343 324 315 312 313 288 191 221 240 229 258 280 287 271 271 268 278 256 263 266 279 251 7 53 38 16 3 330 320
Height
809 806 803 800 798 797 795 794 794 793 792 792 792 792 792 791 790 789 785 776 777 779 781 782 783 780 778 773 768 764 786 790 773 759 743 720 731 722 721 729 724 728 755 759 764
810 806 803 800 797 795 794 793 792 792 791 791 791 791 791 791 790 783 776 775 776 778 781 779 776 775 775 771 767 772 785 777 747 735 741 724 730 731 734 737 734 731 745 756 762
809 806 802 799 796 794 792 790 790 789 789 790 790 791 792 791 788 764 767 772 774 777 778 774 772 770 775 766 764 765 780 755 741 735 732 736 735 731 738 745 730 730 730 739 748
808 804 800 797 794 792 790 788 788 787 788 788 789 790 791 793 781 765 768 771 774 777 779 772 770 771 776 773 757 770 757 751 745 739 740 745 740 743 734 734 720 725 724 739 747
807 803 798 795 792 790 788 786 785 785 786 787 788 790 791 786 770 766 769 772 775 778 775 768 768 767 774 760 753 761 754 748 740 741 742 742 747 744 740 726 718 732 758 735 743
805 800 796 792 789 787 785 784 783 784 784 785 787 789 791 785 764 767 770 772 774 776 771 764 760 756 759 756 755 746 747 748 743 741 741 750 746 740 739 726 722 723 734 733 739
803 798 794 790 787 785 784 783 783 783 784 785 787 789 784 771 763 766 770 771 772 771 765 762 759 759 756 761 744 747 761 751 745 743 744 739 752 748 732 725 730 728 730 729 732
802 796 792 789 786 784 783 783 783 783 784 786 787 791 777 758 763 764 768 769 769 768 765 761 761 762 761 752 752 762 758 774 745 737 736 744 765 736 726 727 731 727 731 732 733
802 796 792 788 785 784 784 784 784 784 785 786 788 786 772 761 762 761 763 764 765 765 765 764 764 766 763 770 775 763 779 766 750 726 727 740 756 733 720 724 732 728 732 732 734
803 797 792 788 786 785 784 785 784 785 786 788 785 785 763 757 754 759 760 762 761 765 766 768 770 776 770 773 790 771 761 750 750 731 726 740 743 733 725 719 724 727 729 732 734
804 799 793 790 788 786 786 786 787 786 782 767 761 760 750 754 757 758 759 760 759 765 778 767 781 783 768 757 754 754 756 757 743 724 729 736 740 732 723 718 721 726 733 737 737
807 801 796 793 790 787 786 780 779 779 777 757 752 749 749 748 756 753 755 763 764 775 766 774 779 762 752 749 751 752 759 761 749 735 736 736 738 730 720 720 722 727 732 736 744
808 803 799 794 790 787 782 782 780 777 776 749 743 744 746 749 752 749 751 756 763 770 766 770 759 743 747 753 759 755 763 763 762 742 731 737 745 738 722 719 722 726 729 736 743
809 803 799 794 792 782 778 781 779 778 784 756 751 745 745 744 753 742 743 753 759 766 757 756 742 746 747 753 754 768 745 748 753 757 769 732 765 740 728 730 729 733 739 743 747
809 803 798 796 791 782 783 780 779 778 794 746 745 741 740 747 742 744 741 743 761 757 757 760 749 747 749 747 742 752 740 745 745 749 752 749 755 734 720 731 732 734 740 744 750
807 802 798 796 791 786 783 781 780 792 792 750 739 747 749 743 743 738 744 740 741 752 748 748 733 737 738 730 733 732 744 745 748 752 768 747 752 741 724 715 722 729 735 743 749
804 799 797 796 789 787 784 779 793 790 741 750 752 749 749 750 748 747 752 756 765 774 770 752 745 732 728 743 734 740 755 777 781 771 766 735 744 731 728 707 701 725 737 745 749
800 794 793 793 790 788 785 786 804 755 748 744 754 755 764 752 747 752 756 760 742 747 762 769 771 741 731 745 760 758 765 795 829 796 760 726 747 746 726 699 700 715 734 745 750
799 793 789 789 789 788 785 793 777 760 755 762 761 767 761 748 752 756 754 757 743 748 770 774 767 748 747 751 757 761 772 763 794 794 787 755 737 736 729 735 729 735 732 744 753
804 795 784 788 788 787 789 792 767 756 764 765 779 764 769 753 752 755 757 741 744 746 749 765 780 755 751 754 754 762 762 784 775 826 828 780 769 802 789 754 737 755 750 750 758
807 791 786 787 786 784 791 770 757 754 767 775 775 772 765 764 759 759 756 747 746 750 753 763 779 775 757 762 765 769 770 786 798 797 813 816 794 809 803 796 781 782 759 766 761
813 800 783 786 788 771 774 773 779 767 765 773 772 773 775 769 769 764 763 756 754 758 770 764 778 785 773 754 752 763 779 793 811 809 825 828 818 805 813 813 801 806 803 784 770
819 796 783 784 789 782 770 769 769 772 773 772 773 768 766 773 779 767 763 754 759 765 772 773 780 794 783 766 771 782 780 784 795 825 819 825 808 787 795 803 803 812 808 794 787
822 804 786 786 782 792 792 791 784 768 768 771 775 770 774 773 767 772 767 756 760 765 779 780 787 792 798 782 779 788 783 781 792 811 804 803 797 801 798 795 796 805 804 794 784
820 807 808 808 796 801 800 795 793 787 774 767 776 775 776 779 773 771 762 759 760 775 775 782 794 784 777 771 766 767 770 771 779 780 791 786 782 783 785 785 786 787 797 782 777
831 831 821 816 808 802 797 794 789 781 779 776 776 772 771 776 769 771 761 757 759 762 772 774 792 786 787 772 767 773 767 765 763 766 765 765 768 760 761 770 774 778 779 778 776
838 838 832 819 810 803 791 784 784 785 781 779 779 779 777 770 772 769 764 762 760 761 769 775 779 786 793 775 770 777 765 761 760 754 757 767 758 752 759 766 772 774 776 780 779